Time,TemperatureF,DewpointF,PressureIn,WindDirection,WindDirectionDegrees,WindSpeedMPH,WindSpeedGustMPH,Humidity,HourlyPrecipIn,Conditions,Clouds,dailyrainin,SoftwareType,DateUTC
2013-02-10 00:01:00,33.0,29.0,-100.00,SE,125,10.0,18.0,83,0.16,,,-99.99,,2013-02-10 06:01:00,
2013-02-10 00:11:00,33.0,29.0,-100.00,ESE,115,9.0,16.0,84,0.11,,,-99.99,,2013-02-10 06:11:00,
2013-02-10 00:21:00,33.0,29.0,-100.00,ESE,110,12.0,17.0,84,0.11,,,-99.99,,2013-02-10 06:21:00,
2013-02-10 00:32:00,33.0,29.0,-100.00,ESE,110,11.0,14.0,86,0.13,,,-99.99,,2013-02-10 06:32:00,
2013-02-10 00:42:00,33.0,29.0,-100.00,ESE,110,11.0,14.0,86,0.13,,,-99.99,,2013-02-10 06:42:00,
2013-02-10 00:51:00,33.0,29.0,-100.00,ESE,110,9.0,16.0,86,0.16,,,-99.99,,2013-02-10 06:51:00,
2013-02-10 01:01:00,33.0,29.0,-100.00,ESE,110,9.0,16.0,86,0.16,,,-99.99,,2013-02-10 07:01:00,
2013-02-10 01:11:00,33.0,29.0,-100.00,ESE,105,10.0,16.0,86,0.10,,,-99.99,,2013-02-10 07:11:00,
2013-02-10 01:21:00,33.0,30.0,-100.00,ESE,110,11.0,16.0,86,0.00,,,-99.99,,2013-02-10 07:21:00,
2013-02-10 01:31:00,33.0,30.0,-100.00,ESE,110,11.0,16.0,86,0.00,,,-99.99,,2013-02-10 07:31:00,
2013-02-10 01:41:00,33.0,30.0,-100.00,ESE,110,11.0,16.0,86,0.00,,,-99.99,,2013-02-10 07:41:00,
2013-02-10 01:51:00,33.0,30.0,-100.00,SE,125,12.0,18.0,86,0.00,,,-99.99,,2013-02-10 07:51:00,
2013-02-10 02:01:00,33.0,30.0,-100.00,SE,125,12.0,18.0,86,0.00,,,-99.99,,2013-02-10 08:01:00,
2013-02-10 02:11:00,33.0,30.0,-100.00,SE,125,10.0,17.0,86,0.00,,,-99.99,,2013-02-10 08:11:00,
2013-02-10 02:21:00,33.0,30.0,-100.00,SE,130,11.0,16.0,86,0.00,,,-99.99,,2013-02-10 08:21:00,
2013-02-10 02:32:00,34.0,30.0,-100.00,SE,135,13.0,17.0,86,0.00,,,-99.99,,2013-02-10 08:32:00,
2013-02-10 02:43:00,34.0,30.0,-100.00,SE,135,13.0,17.0,86,0.00,,,-99.99,,2013-02-10 08:43:00,
2013-02-10 02:52:00,34.0,30.0,-100.00,SE,130,12.0,16.0,87,0.00,,,-99.99,,2013-02-10 08:52:00,
2013-02-10 03:02:00,34.0,30.0,-100.00,SE,130,12.0,16.0,87,0.00,,,-99.99,,2013-02-10 09:02:00,
2013-02-10 03:11:00,34.0,30.0,-100.00,ESE,115,10.0,15.0,87,0.10,,,-99.99,,2013-02-10 09:11:00,
2013-02-10 03:21:00,34.0,30.0,-100.00,ESE,110,11.0,17.0,87,0.00,,,-99.99,,2013-02-10 09:21:00,
2013-02-10 03:31:00,34.0,31.0,-100.00,SE,125,15.0,21.0,88,0.10,,,-99.99,,2013-02-10 09:31:00,
2013-02-10 03:41:00,34.0,31.0,-100.00,SE,125,15.0,21.0,88,0.10,,,-99.99,,2013-02-10 09:41:00,
2013-02-10 03:51:00,34.0,31.0,-100.00,SE,125,16.0,23.0,88,0.00,,,-99.99,,2013-02-10 09:51:00,
2013-02-10 04:01:00,34.0,31.0,-100.00,SE,125,16.0,23.0,88,0.00,,,-99.99,,2013-02-10 10:01:00,
2013-02-10 04:11:00,34.0,31.0,-100.00,SE,125,15.0,22.0,88,0.00,,,-99.99,,2013-02-10 10:11:00,
2013-02-10 04:21:00,34.0,31.0,-100.00,SE,130,14.0,22.0,88,0.00,,,-99.99,,2013-02-10 10:21:00,
2013-02-10 04:31:00,34.0,31.0,-100.00,SE,125,14.0,21.0,88,0.00,,,-99.99,,2013-02-10 10:31:00,
2013-02-10 04:41:00,34.0,31.0,-100.00,SE,125,14.0,21.0,88,0.00,,,-99.99,,2013-02-10 10:41:00,
2013-02-10 04:51:00,34.0,31.0,-100.00,SE,125,15.0,22.0,88,0.00,,,-99.99,,2013-02-10 10:51:00,
2013-02-10 05:01:00,34.0,31.0,-100.00,SE,125,15.0,22.0,88,0.00,,,-99.99,,2013-02-10 11:01:00,
2013-02-10 05:11:00,34.0,31.0,-100.00,SE,125,15.0,22.0,88,0.00,,,-99.99,,2013-02-10 11:11:00,
2013-02-10 05:22:00,34.0,31.0,-100.00,ESE,110,14.0,24.0,89,0.00,,,-99.99,,2013-02-10 11:22:00,
2013-02-10 05:32:00,34.0,32.0,-100.00,ESE,110,17.0,23.0,89,0.00,,,-99.99,,2013-02-10 11:32:00,
2013-02-10 05:42:00,34.0,32.0,-100.00,ESE,110,17.0,23.0,89,0.00,,,-99.99,,2013-02-10 11:42:00,
2013-02-10 05:52:00,34.0,31.0,-100.00,East,100,16.0,22.0,89,0.00,,,-99.99,,2013-02-10 11:52:00,
2013-02-10 06:01:00,34.0,31.0,-100.00,ESE,110,15.0,22.0,89,0.00,,,-99.99,,2013-02-10 12:01:00,
2013-02-10 06:12:00,34.0,31.0,-100.00,SE,125,11.0,21.0,89,0.00,,,-99.99,,2013-02-10 12:12:00,
2013-02-10 06:21:00,34.0,32.0,-100.00,ESE,110,13.0,20.0,89,0.00,,,-99.99,,2013-02-10 12:21:00,
2013-02-10 06:32:00,34.0,32.0,-100.00,ESE,110,17.0,21.0,90,0.20,,,-99.99,,2013-02-10 12:32:00,
2013-02-10 06:41:00,34.0,32.0,-100.00,ESE,110,17.0,21.0,90,0.20,,,-99.99,,2013-02-10 12:41:00,
2013-02-10 06:52:00,35.0,32.0,-100.00,SE,125,17.0,26.0,90,0.00,,,-99.99,,2013-02-10 12:52:00,
2013-02-10 07:02:00,35.0,32.0,-100.00,SE,125,17.0,26.0,90,0.00,,,-99.99,,2013-02-10 13:02:00,
2013-02-10 07:11:00,35.0,32.0,-100.00,SE,130,19.0,27.0,90,0.07,,,-99.99,,2013-02-10 13:11:00,
2013-02-10 07:21:00,35.0,32.0,-100.00,SE,130,18.0,28.0,90,0.17,,,-99.99,,2013-02-10 13:21:00,
2013-02-10 07:31:00,35.0,32.0,-100.00,SE,125,16.0,24.0,90,0.20,,,-99.99,,2013-02-10 13:31:00,
2013-02-10 07:41:00,35.0,32.0,-100.00,SE,125,16.0,24.0,90,0.20,,,-99.99,,2013-02-10 13:41:00,
2013-02-10 07:51:00,35.0,32.0,-100.00,SE,125,17.0,26.0,90,0.33,,,-99.99,,2013-02-10 13:51:00,
2013-02-10 08:02:00,35.0,32.0,-100.00,SE,125,17.0,26.0,90,0.33,,,-99.99,,2013-02-10 14:02:00,
2013-02-10 08:11:00,35.0,32.0,-100.00,SE,125,17.0,26.0,90,0.33,,,-99.99,,2013-02-10 14:11:00,
2013-02-10 08:21:00,35.0,33.0,-100.00,SE,125,15.0,24.0,90,0.14,,,-99.99,,2013-02-10 14:21:00,
2013-02-10 08:32:00,35.0,33.0,-100.00,ESE,115,16.0,24.0,90,0.00,,,-99.99,,2013-02-10 14:32:00,
2013-02-10 08:41:00,35.0,33.0,-100.00,ESE,115,16.0,24.0,90,0.00,,,-99.99,,2013-02-10 14:41:00,
2013-02-10 08:52:00,36.0,33.0,-100.00,SE,125,15.0,23.0,90,0.00,,,-99.99,,2013-02-10 14:52:00,
2013-02-10 09:01:00,36.0,33.0,-100.00,SE,125,15.0,23.0,90,0.00,,,-99.99,,2013-02-10 15:01:00,
2013-02-10 09:11:00,36.0,33.0,-100.00,ESE,115,15.0,22.0,90,0.00,,,-99.99,,2013-02-10 15:11:00,
2013-02-10 09:22:00,36.0,33.0,-100.00,SE,130,17.0,25.0,90,0.11,,,-99.99,,2013-02-10 15:22:00,
2013-02-10 09:32:00,36.0,33.0,-100.00,SE,135,18.0,26.0,90,0.24,,,-99.99,,2013-02-10 15:32:00,
2013-02-10 09:41:00,36.0,33.0,-100.00,SE,135,18.0,26.0,90,0.24,,,-99.99,,2013-02-10 15:41:00,
2013-02-10 09:51:00,36.0,34.0,-100.00,SE,135,16.0,22.0,90,0.17,,,-99.99,,2013-02-10 15:51:00,
2013-02-10 10:02:00,36.0,34.0,-100.00,SE,135,16.0,22.0,90,0.17,,,-99.99,,2013-02-10 16:02:00,
2013-02-10 10:11:00,36.0,34.0,-100.00,SE,140,13.0,18.0,90,0.14,,,-99.99,,2013-02-10 16:11:00,
2013-02-10 10:22:00,36.0,34.0,-100.00,SE,135,11.0,19.0,90,0.20,,,-99.99,,2013-02-10 16:22:00,
2013-02-10 10:32:00,37.0,35.0,-100.00,SE,145,11.0,18.0,90,0.00,,,-99.99,,2013-02-10 16:32:00,
2013-02-10 10:42:00,37.0,35.0,-100.00,SE,145,11.0,18.0,90,0.00,,,-99.99,,2013-02-10 16:42:00,
2013-02-10 10:52:00,37.0,35.0,-100.00,SE,140,9.0,15.0,90,0.00,,,-99.99,,2013-02-10 16:52:00,
2013-02-10 11:01:00,37.0,35.0,-100.00,SE,140,9.0,15.0,90,0.00,,,-99.99,,2013-02-10 17:01:00,
2013-02-10 11:11:00,38.0,35.0,-100.00,SE,130,10.0,16.0,90,0.00,,,-99.99,,2013-02-10 17:11:00,
2013-02-10 11:21:00,38.0,35.0,-100.00,SE,130,11.0,15.0,90,0.00,,,-99.99,,2013-02-10 17:21:00,
2013-02-10 11:32:00,38.0,36.0,-100.00,SE,140,11.0,15.0,90,0.00,,,-99.99,,2013-02-10 17:32:00,
2013-02-10 11:42:00,38.0,36.0,-100.00,SE,140,11.0,15.0,90,0.00,,,-99.99,,2013-02-10 17:42:00,
2013-02-10 11:52:00,39.0,36.0,-100.00,SE,140,10.0,15.0,90,0.00,,,-99.99,,2013-02-10 17:52:00,
2013-02-10 12:02:00,39.0,36.0,-100.00,SE,140,10.0,15.0,90,0.00,,,-99.99,,2013-02-10 18:02:00,
2013-02-10 12:11:00,40.0,37.0,-100.00,SE,145,11.0,16.0,90,0.00,,,-99.99,,2013-02-10 18:11:00,
2013-02-10 12:21:00,40.0,37.0,-100.00,SE,145,12.0,15.0,90,0.00,,,-99.99,,2013-02-10 18:21:00,
2013-02-10 12:32:00,41.0,38.0,-100.00,SE,135,13.0,16.0,90,0.00,,,-99.99,,2013-02-10 18:32:00,
2013-02-10 12:42:00,41.0,38.0,-100.00,SE,135,13.0,16.0,90,0.00,,,-99.99,,2013-02-10 18:42:00,
2013-02-10 12:52:00,42.0,40.0,-100.00,SE,130,12.0,19.0,90,0.00,,,-99.99,,2013-02-10 18:52:00,
2013-02-10 13:01:00,42.0,40.0,-100.00,SE,130,12.0,19.0,90,0.00,,,-99.99,,2013-02-10 19:01:00,
2013-02-10 13:11:00,42.0,40.0,-100.00,SE,130,12.0,19.0,90,0.00,,,-99.99,,2013-02-10 19:11:00,
2013-02-10 13:21:00,42.0,40.0,-100.00,SE,130,12.0,19.0,90,0.00,,,-99.99,,2013-02-10 19:21:00,
2013-02-10 13:32:00,43.0,40.0,-100.00,SE,135,9.0,17.0,90,0.00,,,-99.99,,2013-02-10 19:32:00,
2013-02-10 13:42:00,43.0,40.0,-100.00,SE,135,9.0,13.0,90,0.00,,,-99.99,,2013-02-10 19:42:00,
2013-02-10 13:52:00,42.0,40.0,-100.00,ESE,120,11.0,16.0,90,0.00,,,-99.99,,2013-02-10 19:52:00,
2013-02-10 14:02:00,42.0,40.0,-100.00,ESE,120,11.0,16.0,90,0.00,,,-99.99,,2013-02-10 20:02:00,
2013-02-10 14:11:00,42.0,40.0,-100.00,SE,135,9.0,14.0,90,0.00,,,-99.99,,2013-02-10 20:11:00,
2013-02-10 14:21:00,42.0,39.0,-100.00,SE,135,9.0,14.0,90,0.00,,,-99.99,,2013-02-10 20:21:00,
2013-02-10 14:32:00,42.0,39.0,-100.00,SE,145,9.0,14.0,90,0.00,,,-99.99,,2013-02-10 20:32:00,
2013-02-10 14:42:00,42.0,39.0,-100.00,SE,145,9.0,14.0,90,0.00,,,-99.99,,2013-02-10 20:42:00,
2013-02-10 14:52:00,42.0,38.0,-100.00,SW,225,21.0,32.0,85,0.00,,,-99.99,,2013-02-10 20:52:00,
2013-02-10 15:02:00,42.0,38.0,-100.00,SW,225,21.0,32.0,85,0.00,,,-99.99,,2013-02-10 21:02:00,
2013-02-10 15:11:00,44.0,35.0,-100.00,SW,225,19.0,28.0,70,0.00,,,-99.99,,2013-02-10 21:11:00,
2013-02-10 15:22:00,45.0,33.0,-100.00,SSW,205,21.0,29.0,63,0.00,,,-99.99,,2013-02-10 21:22:00,
2013-02-10 15:32:00,44.0,30.0,-100.00,SSW,205,18.0,29.0,57,0.00,,,-99.99,,2013-02-10 21:32:00,
2013-02-10 15:51:00,44.0,28.0,-100.00,SSW,200,26.0,37.0,53,0.00,,,-99.99,,2013-02-10 21:51:00,
2013-02-10 16:02:00,44.0,28.0,-100.00,SSW,200,26.0,37.0,53,0.00,,,-99.99,,2013-02-10 22:02:00,
2013-02-10 16:11:00,42.0,26.0,-100.00,SSW,210,22.0,37.0,52,0.00,,,-99.99,,2013-02-10 22:11:00,
2013-02-10 16:21:00,42.0,26.0,-100.00,SSW,210,22.0,37.0,52,0.00,,,-99.99,,2013-02-10 22:21:00,
2013-02-10 16:32:00,41.0,26.0,-100.00,SSW,200,21.0,31.0,55,0.00,,,-99.99,,2013-02-10 22:32:00,
2013-02-10 16:52:00,40.0,27.0,-100.00,SW,215,15.0,26.0,61,0.08,,,-99.99,,2013-02-10 22:52:00,
2013-02-10 17:02:00,40.0,27.0,-100.00,SW,215,15.0,26.0,61,0.08,,,-99.99,,2013-02-10 23:02:00,
2013-02-10 17:11:00,40.0,27.0,-100.00,SW,215,15.0,26.0,61,0.08,,,-99.99,,2013-02-10 23:11:00,
2013-02-10 17:22:00,39.0,28.0,-100.00,SSW,200,22.0,29.0,63,0.00,,,-99.99,,2013-02-10 23:22:00,
2013-02-10 17:32:00,39.0,29.0,-100.00,SSW,210,20.0,33.0,69,0.08,,,-99.99,,2013-02-10 23:32:00,
2013-02-10 17:42:00,39.0,29.0,-100.00,SSW,210,20.0,33.0,69,0.08,,,-99.99,,2013-02-10 23:42:00,
2013-02-10 17:52:00,38.0,29.0,-100.00,SW,220,19.0,30.0,69,0.00,,,-99.99,,2013-02-10 23:52:00,
2013-02-10 18:02:00,38.0,30.0,-100.00,SSW,210,21.0,28.0,72,0.13,,,-99.99,,2013-02-11 00:02:00,
2013-02-10 18:11:00,38.0,30.0,-100.00,SSW,210,21.0,28.0,72,0.13,,,-99.99,,2013-02-11 00:11:00,
2013-02-10 18:22:00,38.0,30.0,-100.00,SSW,210,21.0,28.0,72,0.13,,,-99.99,,2013-02-11 00:22:00,
2013-02-10 18:32:00,38.0,31.0,-100.00,SW,220,17.0,26.0,78,0.00,,,-99.99,,2013-02-11 00:32:00,
2013-02-10 18:42:00,38.0,32.0,-100.00,SSW,205,17.0,24.0,79,0.00,,,-99.99,,2013-02-11 00:42:00,
2013-02-10 18:52:00,38.0,33.0,-100.00,SW,215,17.0,27.0,82,0.00,,,-99.99,,2013-02-11 00:52:00,
2013-02-10 19:01:00,38.0,33.0,-100.00,SW,215,17.0,27.0,82,0.00,,,-99.99,,2013-02-11 01:01:00,
2013-02-10 19:11:00,38.0,33.0,-100.00,SW,230,15.0,26.0,82,0.00,,,-99.99,,2013-02-11 01:11:00,
2013-02-10 19:21:00,38.0,33.0,-100.00,SW,230,19.0,32.0,83,0.13,,,-99.99,,2013-02-11 01:21:00,
2013-02-10 19:32:00,37.0,32.0,-100.00,WSW,250,21.0,34.0,81,0.10,,,-99.99,,2013-02-11 01:32:00,
2013-02-10 19:41:00,37.0,32.0,-100.00,WSW,250,21.0,34.0,81,0.10,,,-99.99,,2013-02-11 01:41:00,
2013-02-10 19:52:00,36.0,30.0,-100.00,WSW,245,22.0,37.0,78,0.00,,,-99.99,,2013-02-11 01:52:00,
2013-02-10 20:01:00,36.0,30.0,-100.00,WSW,245,22.0,37.0,78,0.00,,,-99.99,,2013-02-11 02:01:00,
2013-02-10 20:11:00,36.0,30.0,-100.00,WSW,245,22.0,37.0,78,0.00,,,-99.99,,2013-02-11 02:11:00,
2013-02-10 20:21:00,35.0,28.0,-100.00,WSW,240,19.0,31.0,77,0.01,,,-99.99,,2013-02-11 02:21:00,
2013-02-10 20:31:00,34.0,28.0,-100.00,SW,235,19.0,31.0,79,0.13,,,-99.99,,2013-02-11 02:31:00,
2013-02-10 20:42:00,34.0,28.0,-100.00,SW,235,19.0,31.0,79,0.13,,,-99.99,,2013-02-11 02:42:00,
2013-02-10 20:52:00,34.0,27.0,-100.00,WSW,250,17.0,36.0,76,0.11,,,-99.99,,2013-02-11 02:52:00,
2013-02-10 21:02:00,34.0,27.0,-100.00,WSW,250,17.0,36.0,76,0.11,,,-99.99,,2013-02-11 03:02:00,
2013-02-10 21:11:00,34.0,27.0,-100.00,WSW,245,24.0,32.0,74,0.11,,,-99.99,,2013-02-11 03:11:00,
2013-02-10 21:21:00,33.0,26.0,-100.00,West,260,17.0,35.0,74,0.13,,,-99.99,,2013-02-11 03:21:00,
2013-02-10 21:31:00,33.0,26.0,-100.00,West,265,20.0,34.0,75,0.00,,,-99.99,,2013-02-11 03:31:00,
2013-02-10 21:42:00,33.0,26.0,-100.00,West,265,20.0,34.0,75,0.00,,,-99.99,,2013-02-11 03:42:00,
2013-02-10 21:52:00,33.0,25.0,-100.00,West,260,25.0,34.0,72,0.00,,,-99.99,,2013-02-11 03:52:00,
2013-02-10 22:01:00,33.0,25.0,-100.00,West,260,25.0,34.0,72,0.00,,,-99.99,,2013-02-11 04:01:00,
2013-02-10 22:11:00,33.0,24.0,-100.00,West,265,22.0,32.0,69,0.00,,,-99.99,,2013-02-11 04:11:00,
2013-02-10 22:21:00,33.0,24.0,-100.00,West,260,23.0,30.0,68,0.00,,,-99.99,,2013-02-11 04:21:00,
2013-02-10 22:31:00,33.0,23.0,-100.00,West,260,21.0,29.0,66,0.00,,,-99.99,,2013-02-11 04:31:00,
2013-02-10 22:42:00,33.0,23.0,-100.00,West,260,21.0,29.0,66,0.00,,,-99.99,,2013-02-11 04:42:00,
2013-02-10 22:51:00,33.0,23.0,-100.00,West,260,20.0,26.0,65,0.00,,,-99.99,,2013-02-11 04:51:00,
2013-02-10 23:01:00,33.0,23.0,-100.00,West,260,20.0,26.0,65,0.00,,,-99.99,,2013-02-11 05:01:00,
2013-02-10 23:11:00,33.0,22.0,-100.00,West,265,21.0,39.0,64,0.00,,,-99.99,,2013-02-11 05:11:00,
2013-02-10 23:22:00,33.0,22.0,-100.00,WSW,255,20.0,33.0,63,0.00,,,-99.99,,2013-02-11 05:22:00,
2013-02-10 23:31:00,32.0,22.0,-100.00,West,260,26.0,34.0,64,0.13,,,-99.99,,2013-02-11 05:31:00,
2013-02-10 23:42:00,32.0,22.0,-100.00,West,260,26.0,34.0,64,0.13,,,-99.99,,2013-02-11 05:42:00,
2013-02-10 23:52:00,31.0,22.0,-100.00,West,270,26.0,37.0,68,0.16,,,-99.99,,2013-02-11 05:52:00,